When you browse on this site, cookies collect data to enhance your experience and personalize the content and advertising you see.
Visit our Privacy Policy to learn more. By continuing to use the site, you agree to this use of cookies and data.
  • En España
  • Lista de países
  • Para 7 días
  • Temperatura del agua
  • Mapa Satelital
  • El tiempo en el mapa
  • Informadores
  • user-avatar
    Iniciar sesión

    Tiempo cada hora Luanda

    Hoy, 23 Marzo, Sábado

    Tiempo Temperatura Precipitaciones Viento Presión Humedad
    00:00 +29°C° 0.1 mm 3 mps 752 mmHg 88%
    01:00 +29°C° 0 mm 1 mps 752 mmHg 90%
    02:00 +29°C° 0 mm 1 mps 752 mmHg 91%
    03:00 +26°C° 0 mm 0 mps 751 mmHg 91%
    04:00 +26°C° 0 mm 0 mps 751 mmHg 92%
    05:00 +28°C° 0.8 mm 1 mps 752 mmHg 92%
    06:00 +28°C° 0.8 mm 1 mps 752 mmHg 92%
    07:00 +28°C° 0 mm 1 mps 752 mmHg 89%
    08:00 +29°C° 0.2 mm 2 mps 753 mmHg 85%
    09:00 +30°C° 0.2 mm 2 mps 753 mmHg 82%
    10:00 +30°C° 0.2 mm 2 mps 753 mmHg 78%
    11:00 +31°C° 0 mm 3 mps 753 mmHg 74%
    12:00 +33°C° 0 mm 3 mps 752 mmHg 69%
    13:00 +34°C° 0 mm 3 mps 752 mmHg 66%
    14:00 +34°C° 0 mm 3 mps 752 mmHg 66%
    15:00 +34°C° 0 mm 4 mps 751 mmHg 67%
    16:00 +34°C° 0 mm 4 mps 751 mmHg 67%
    17:00 +33°C° 0 mm 4 mps 751 mmHg 71%
    18:00 +32°C° 0 mm 5 mps 751 mmHg 75%
    19:00 +30°C° 0 mm 5 mps 752 mmHg 79%
    20:00 +30°C° 0 mm 4 mps 752 mmHg 81%
    21:00 +30°C° 0 mm 4 mps 752 mmHg 82%
    22:00 +30°C° 0 mm 4 mps 753 mmHg 84%
    23:00 +29°C° 0.1 mm 4 mps 753 mmHg 85%

    Mañana, 24 Marzo, Domingo

    Tiempo Temperatura Precipitaciones Viento Presión Humedad
    00:00 +29°C° 0.1 mm 4 mps 753 mmHg 87%
    01:00 +29°C° 0.1 mm 4 mps 752 mmHg 89%
    02:00 +29°C° 2.3 mm 4 mps 752 mmHg 89%
    03:00 +28°C° 2.3 mm 4 mps 752 mmHg 90%
    04:00 +28°C° 2.3 mm 4 mps 752 mmHg 90%
    05:00 +28°C° 0.5 mm 4 mps 752 mmHg 90%
    06:00 +29°C° 0.5 mm 4 mps 752 mmHg 89%
    07:00 +29°C° 0.5 mm 4 mps 752 mmHg 89%
    08:00 +30°C° 0 mm 4 mps 753 mmHg 82%
    09:00 +32°C° 0 mm 4 mps 753 mmHg 75%
    10:00 +34°C° 0 mm 3 mps 753 mmHg 69%
    11:00 +34°C° 0 mm 4 mps 753 mmHg 66%
    12:00 +35°C° 0 mm 4 mps 752 mmHg 63%
    13:00 +35°C° 0 mm 4 mps 752 mmHg 60%
    14:00 +35°C° 0 mm 5 mps 751 mmHg 61%
    15:00 +35°C° 0 mm 5 mps 751 mmHg 62%
    16:00 +35°C° 0 mm 6 mps 750 mmHg 63%
    17:00 +34°C° 0 mm 5 mps 750 mmHg 68%
    18:00 +33°C° 0 mm 5 mps 751 mmHg 72%
    19:00 +30°C° 0 mm 5 mps 751 mmHg 77%
    20:00 +30°C° 0 mm 4 mps 751 mmHg 79%
    21:00 +30°C° 0 mm 3 mps 752 mmHg 81%
    22:00 +30°C° 0 mm 2 mps 753 mmHg 83%
    23:00 +29°C° 0 mm 2 mps 752 mmHg 84%

    Pasado mañana, 25 Marzo, Lunes

    Tiempo Temperatura Precipitaciones Viento Presión Humedad
    00:00 +29°C° 0 mm 2 mps 752 mmHg 85%
    01:00 +29°C° 0 mm 3 mps 752 mmHg 86%
    02:00 +29°C° 0.2 mm 3 mps 752 mmHg 86%
    03:00 +29°C° 0.2 mm 3 mps 752 mmHg 86%
    04:00 +29°C° 0.2 mm 3 mps 751 mmHg 87%
    05:00 +29°C° 1.7 mm 3 mps 752 mmHg 86%
    06:00 +29°C° 1.7 mm 2 mps 752 mmHg 86%
    07:00 +29°C° 1.7 mm 2 mps 752 mmHg 85%
    08:00 +30°C° 0 mm 2 mps 752 mmHg 79%
    09:00 +32°C° 0 mm 2 mps 753 mmHg 72%
    10:00 +34°C° 0 mm 3 mps 753 mmHg 66%
    11:00 +34°C° 0.1 mm 3 mps 753 mmHg 65%
    12:00 +34°C° 0.1 mm 4 mps 752 mmHg 65%
    13:00 +35°C° 0.1 mm 5 mps 751 mmHg 64%
    14:00 +34°C° 0.1 mm 5 mps 751 mmHg 66%
    15:00 +34°C° 0.1 mm 5 mps 750 mmHg 67%
    16:00 +34°C° 0.1 mm 5 mps 750 mmHg 69%
    17:00 +33°C° 0.1 mm 4 mps 751 mmHg 73%
    18:00 +32°C° 0.1 mm 4 mps 751 mmHg 78%
    19:00 +30°C° 0.1 mm 3 mps 752 mmHg 82%
    20:00 +30°C° 0.5 mm 3 mps 752 mmHg 84%
    21:00 +29°C° 0.5 mm 2 mps 753 mmHg 86%
    22:00 +29°C° 0.5 mm 2 mps 754 mmHg 87%
    23:00 +29°C° 2.2 mm 2 mps 753 mmHg 89%

    26 Marzo, Martes

    Tiempo Temperatura Precipitaciones Viento Presión Humedad
    00:00 +29°C° 2.2 mm 3 mps 753 mmHg 90%
    01:00 +28°C° 2.2 mm 3 mps 753 mmHg 91%
    02:00 +28°C° 0.4 mm 3 mps 752 mmHg 91%
    03:00 +28°C° 0.4 mm 3 mps 752 mmHg 90%
    04:00 +28°C° 0.4 mm 3 mps 751 mmHg 90%
    05:00 +28°C° 0 mm 2 mps 752 mmHg 88%
    06:00 +29°C° 0 mm 1 mps 752 mmHg 86%
    07:00 +29°C° 0 mm 1 mps 753 mmHg 84%
    08:00 +28°C° 0.1 mm 0 mps 753 mmHg 79%
    09:00 +29°C° 0.1 mm 0 mps 754 mmHg 74%
    10:00 +29°C° 0.1 mm 0 mps 754 mmHg 70%
    11:00 +30°C° 0 mm 0 mps 754 mmHg 68%
    12:00 +32°C° 0 mm 1 mps 753 mmHg 66%
    13:00 +33°C° 0 mm 1 mps 752 mmHg 64%
    14:00 +32°C° 0 mm 2 mps 752 mmHg 65%
    15:00 +32°C° 0 mm 2 mps 751 mmHg 66%
    16:00 +33°C° 0 mm 3 mps 750 mmHg 67%
    17:00 +31°C° 0 mm 3 mps 751 mmHg 70%
    18:00 +31°C° 0 mm 3 mps 751 mmHg 74%
    19:00 +30°C° 0 mm 3 mps 752 mmHg 77%
    20:00 +29°C° 0 mm 3 mps 753 mmHg 79%
    21:00 +29°C° 0 mm 2 mps 753 mmHg 81%
    22:00 +29°C° 0 mm 2 mps 754 mmHg 83%
    23:00 +28°C° 0 mm 2 mps 753 mmHg 84%

    27 Marzo, Miércoles

    Tiempo Temperatura Precipitaciones Viento Presión Humedad
    00:00 +28°C° 0 mm 2 mps 753 mmHg 85%
    01:00 +28°C° 0 mm 2 mps 753 mmHg 86%
    02:00 +28°C° 0 mm 2 mps 752 mmHg 86%
    03:00 +28°C° 0 mm 2 mps 752 mmHg 87%
    04:00 +27°C° 0 mm 2 mps 752 mmHg 88%
    05:00 +27°C° 0 mm 3 mps 752 mmHg 88%
    06:00 +28°C° 0 mm 3 mps 753 mmHg 88%
    07:00 +28°C° 0 mm 3 mps 753 mmHg 88%
    08:00 +29°C° 0 mm 3 mps 754 mmHg 81%
    09:00 +30°C° 0 mm 3 mps 754 mmHg 75%
    10:00 +32°C° 0 mm 2 mps 754 mmHg 68%
    11:00 +34°C° 0 mm 2 mps 753 mmHg 64%
    12:00 +34°C° 0 mm 1 mps 753 mmHg 60%
    13:00 +35°C° 0 mm 1 mps 752 mmHg 56%
    14:00 +35°C° 0 mm 2 mps 751 mmHg 58%
    15:00 +35°C° 0 mm 3 mps 751 mmHg 60%
    16:00 +35°C° 0 mm 4 mps 751 mmHg 61%
    17:00 +33°C° 0 mm 4 mps 751 mmHg 68%
    18:00 +32°C° 0 mm 4 mps 752 mmHg 74%
    19:00 +30°C° 0 mm 4 mps 752 mmHg 80%
    20:00 +30°C° 0 mm 3 mps 753 mmHg 81%
    21:00 +29°C° 0 mm 3 mps 753 mmHg 83%
    22:00 +29°C° 0 mm 2 mps 753 mmHg 84%
    23:00 +29°C° 0 mm 3 mps 753 mmHg 84%

    28 Marzo, Jueves

    Tiempo Temperatura Precipitaciones Viento Presión Humedad
    00:00 +29°C° 0 mm 3 mps 753 mmHg 84%
    01:00 +29°C° 0 mm 3 mps 752 mmHg 85%
    02:00 +28°C° 0 mm 3 mps 752 mmHg 85%
    03:00 +28°C° 0 mm 3 mps 752 mmHg 86%
    04:00 +28°C° 0 mm 4 mps 752 mmHg 87%
    05:00 +28°C° 0 mm 3 mps 752 mmHg 87%
    06:00 +28°C° 0 mm 3 mps 753 mmHg 86%
    07:00 +28°C° 0 mm 3 mps 753 mmHg 86%
    08:00 +30°C° 0 mm 3 mps 753 mmHg 80%
    09:00 +31°C° 0 mm 2 mps 754 mmHg 74%
    10:00 +34°C° 0 mm 2 mps 754 mmHg 67%
    11:00 +35°C° 0 mm 2 mps 753 mmHg 63%
    12:00 +36°C° 0 mm 2 mps 752 mmHg 58%
    13:00 +37°C° 0 mm 2 mps 752 mmHg 54%
    14:00 +36°C° 0 mm 3 mps 751 mmHg 58%
    15:00 +36°C° 0 mm 4 mps 751 mmHg 62%
    16:00 +35°C° 0 mm 5 mps 750 mmHg 67%
    17:00 +34°C° 0 mm 5 mps 751 mmHg 72%
    18:00 +33°C° 0 mm 4 mps 752 mmHg 78%
    19:00 +30°C° 0 mm 4 mps 752 mmHg 84%
    20:00 +30°C° 0 mm 4 mps 752 mmHg 84%
    21:00 +30°C° 0 mm 3 mps 753 mmHg 85%
    22:00 +30°C° 0 mm 3 mps 753 mmHg 85%
    23:00 +30°C° 0 mm 3 mps 753 mmHg 86%
    Mostrar más